AQI (52)

Current Conditions for Foresthill, CA. Dawn, Overcast , Dry   
Visibility: 10 miles
Cloud ht: 6,000 ft
Space WX Alerts: WARNING:  Geomagnetic K-index of 4 expected ( Latest Alert ) - Issue Time: 2018 Nov 20 0520 UTC

  Summary / Temperature 

Current Temperature
49.1°F
9.5°C
(24/hr Ago)
49.2°F
(Apparent temp)
43.1°F
Cool
Wind Chill Graphs
47.8°F 

49.1°F/ 9.5°C
 --- Virtual Temp: 50.1°F ---

 Temp Rate:

 24/hr Difference:

 Avg Running Temp:

 Todays High:

 Todays Low:

 Y-days High:

 Y-days Low:

 Todays WChill:

 Y-days WChill:

 Evapotranspiration:

+0.3°F/hr 

-0.1°F

48.8°F

49.2°F 12:00am

47.8°F 2:04am

61.9°F 12:24pm

48.1°F 7:12am

42.2°F 2:52am

42.8°F 3:52am

0.007 in

115' Above Ground

 Temperature:

 6'AGL VRS 115'AGL:

 Avg Running Temp:

 Humidity:

 Todays High:

 Todays Low:

 Y-days High:

 Y-days Low:

50.0°F 

+0.9°F

50.1°F

39% 

52.0°F 12:00am

50.0°F 3:39am

65.0°F 12:03pm

52.0°F 12:34am

Temp & Humidity Graphs

  Wind 

Wind Speed

 8.0 mph

Gusting to

 14.0 mph

Wind from SE

126°  SE

Gentle breeze

 Avg speed:

 Wind Run:

 Peak Gust:

  3.0 mph 

16.0 miles

  15.0 mph 5:08am

  Almanac  

Moon age: 13 days,1 hours,3 minutes,97%

Waxing Gibbous
97%
Illuminated
13 days in cycle

 Moonrise:

 Moonset:

 Sunrise:

 Sunset:

 Solar Noon:

4:13pm

4:57am

6:53am

4:45pm

11:49am

1min 46s less daylight tomorrow 

  Solar Radiation 

(Current Solar)
  No Sun Light
(Todays High)
 None@12:00am

Rain

 Rain Today:

 Rain Rate (/hr):

 Rain last hour:

 Rain Yesterday:

 This Month:

 Season Total:

45 Days Since Last Rain Day

0.00 in

0.000 in

0.00 in

0.00 in

0.00 in

0.92 in

Updated Time

Updated: 11/21/18  6:31am

(Updated  sec ago)

Humidity & Barometer

 Humidity:

 Wetbulb:

 Dew Point:

 Barometer:

41% 

41.1°F 

26.4°F 

30.061 inHg 

 Baro Trend:  Steady 
Northern Calif
Preparedness
Fire 
Level 

    UV Index  

(Current UV)
0.0  None
(Todays High) @ 12:00am
0.0   None

National Weather Service Forecast

Today

Today: Heavy Rain
Heavy Rain
Tonight

Tonight: Heavy Rain
Heavy Rain
Thanksgiving
Day
Thanksgiving Day: Rain
Rain
Thursday
Night
Thursday Night: Heavy Rain
Heavy Rain
Friday

Friday: Heavy Rain
Heavy Rain
Friday
Night
Friday Night: Rain then Rain Showers
Rain
Hi 53 °F ↓ Lo 44 °F Hi 48 °F Lo 46 °F Hi 51 °F Lo 48 °F

Foresthill Probe 2 Stats  
Foresthill Probe 2: is located on Thomas Street
at 3000 feet. The main Foresthill Weather site
is located on Melody ln at the 2860 foot elevation

Calm
48.7°F
9.3°C
Temp Rate:
+0.6°F
Calm
Gusting to
1.0 mph
(Humidity)
44%
Wind from ESE
117°  ESE
Updated: 21/11/18 - 06:27:09
 Todays High: 48.7°F 06:12
 Todays Low: 47.0°F 01:46
 Rain Today: 0.00 in
 Season Total: 0.63 in

Foresthill Wx: Monthly,Yearly, Highs and Lows 

Foresthill  
This Weather Data is coming from the main Foresthill
Weather site located on Melody ln at the 2860 foot
elevation
Not Foresthill Probe 2
Weather Data
Month
  High
Month
  Low
Year
High
Year
Low
Temp 72.9°F
11/1/18
45.9°F
11/14/18
93.9°F
8/10/18
21.9°F
2/23/18
Humidity 61%
11/2/18
10%
11/8/18
100%
1/8/18
9%
10/15/18
Heat Index 72.7°F
11/1/18
45.2°F
11/11/18
93.3°F
7/25/18
27.1°F
2/20/18
Wind Chill 72.9°F
11/1/18
39.4°F
11/11/18
93.9°F
8/10/18
9.2°F
2/23/18
Wind Gust 34 mph
11/8/18
0 mph
11/1/18
43 mph
3/1/18
0 mph
1/1/18
Barometer 30.48 in
11/13/18
29.91 in
11/5/18
30.55 in
1/27/18
29.60 in
6/16/18
ET 0.14 in
11/8/18
0.00 in
11/1/18
0.25 in
6/24/18
0.00 in
1/1/18
Dew Point 47.2°F
11/1/18
0.7°F
11/8/18
66.9°F
7/24/18
0.7°F
11/8/18
Pacific Satellite US Radar Satellite Imagery Sacramento,CA.  (click to enlarge)
NWS Weather Forecast - Summary
Updated: Wednesday, November 21, 2018 - 2:25am PST
Current Interstate Highway Conditions for I-80 & US-50

[I 80: IN THE SAN FRANCISCO BAY AREA - SOLANO CO]
no traffic restrictions are reported for this area.

[I 80: IN THE NORTHERN CALIFORNIA AREA & SIERRA NEVADA]
no traffic restrictions are reported for this area.

[US 50: IN THE SACRAMENTO VALLEY & THE LAKE TAHOE BASIN]
no traffic restrictions are reported for this area.
NWS Weather Forecast: Today and Tonight (Updated: Wed, 21-Nov-2018 3:29am PST)
Today

Today: Heavy Rain
Heavy Rain

Hi 53 °F ↓
NWS forecast: Rain. Cloudy. High near 53, with temperatures falling to around 47 in the afternoon. South southeast wind 5 to 12 mph. Chance of precipitation is 100%. New rainfall amounts between 1 and 2 inches possible.
Tonight

Tonight: Heavy Rain
Heavy Rain

Lo 44 °F
NWS forecast: Rain. Cloudy, with a low around 44. South wind 7 to 12 mph, with gusts as high as 18 mph. Chance of precipitation is 100%. New rainfall amounts between 1 and 2 inches possible.
YR.NO 10 Day Weather forecast
Last update: 11/20/2018 @ 23:40
Next update: 11/21/2018 @ 12:00
Provided by: 22
      Temperature Precipitation Pressure Wind  
Today
11/21/2018
04:00 06:00 41°F   30.00 inHg Light breeze from east 6 mph
  06:00 12:00 45°F 0.05 in 30.01 inHg Light breeze from east-southeast 6 mph
  12:00 18:00 50°F 0.48 in 30.02 inHg Gentle breeze from southeast 9 mph
  18:00 00:00 43°F 0.18 in 29.99 inHg Gentle breeze from south-southeast 9 mph
    (Click to enlarge)
meteogram

    Forecast for next 9 days

      Temperature Precip Pressure Wind  
Thursday
11/22/2018
00:00 06:00 43°F 0.19 in 30.06 inHg Light breeze from southeast 6 mph
  06:00 12:00 41°F 0.19 in 30.10 inHg Light breeze from south-southeast 7 mph
  12:00 18:00 45°F 0.23 in 30.17 inHg Gentle breeze from south-southwest 10 mph
  18:00 00:00 41°F 0.58 in 30.15 inHg Gentle breeze from south-southeast 10 mph
      Temperature Precip Pressure Wind  
Friday
11/23/2018
00:00 06:00 41°F 0.38 in 30.16 inHg Gentle breeze from south-southeast 10 mph
  06:00 12:00 43°F 0.92 in 30.10 inHg Gentle breeze from south-southeast 8 mph
  12:00 18:00 45°F 0.81 in 30.08 inHg Gentle breeze from south-southeast 11 mph
  16:00 22:00 46°F 0.34 in 30.00 inHg Gentle breeze from south 11 mph
  22:00 04:00 46°F 0.08 in 30.01 inHg Gentle breeze from south-southeast 8 mph
      Temperature Precip Pressure Wind  
Saturday
11/24/2018
04:00 10:00 46°F 0.04 in 30.01 inHg Light breeze from south-southwest 7 mph
  10:00 16:00 46°F   30.09 inHg Light air from southwest 2 mph
  16:00 22:00 48°F   30.04 inHg Light breeze from west-northwest 4 mph
  22:00 04:00 37°F   30.06 inHg Light breeze from east-northeast 7 mph
      Temperature Precip Pressure Wind  
Sunday
11/25/2018
04:00 10:00 41°F   30.02 inHg Light breeze from east-northeast 6 mph
  10:00 16:00 52°F   30.14 inHg Light air from south-southwest 2 mph
  16:00 22:00 50°F   30.11 inHg Light air from south-southwest 1 mph
  22:00 04:00 36°F   30.15 inHg Light breeze from east-northeast 6 mph
      Temperature Precip Pressure Wind  
Monday
11/26/2018
04:00 10:00 34°F   30.16 inHg Light breeze from east-northeast 4 mph
  10:00 16:00 52°F   30.18 inHg Light air from west-northwest 2 mph
  16:00 22:00 52°F   30.10 inHg Light air from west 2 mph
  22:00 04:00 39°F   30.15 inHg Light breeze from east 5 mph
      Temperature Precip Pressure Wind  
Tuesday
11/27/2018
04:00 10:00 41°F   30.11 inHg Light breeze from east 4 mph
  10:00 16:00 50°F 0.54 in 30.10 inHg Light breeze from south 6 mph
  16:00 22:00 45°F 0.58 in 30.00 inHg Light breeze from southeast 6 mph
  22:00 04:00 45°F 0.15 in 30.04 inHg Gentle breeze from south-southeast 8 mph
      Temperature Precip Pressure Wind  
Wednesday
11/28/2018
04:00 10:00 43°F 0.06 in 30.04 inHg Light breeze from south-southeast 4 mph
  10:00 16:00 45°F 0.04 in 30.04 inHg Light breeze from south 4 mph
  16:00 22:00 43°F   29.99 inHg Light air from south 3 mph
  22:00 04:00 34°F   29.98 inHg Light breeze from east-northeast 4 mph
      Temperature Precip Pressure Wind  
Thursday
11/29/2018
04:00 10:00 36°F 0.41 in 29.93 inHg Light breeze from east 5 mph
  10:00 16:00 39°F 0.19 in 29.97 inHg Gentle breeze from south-southeast 10 mph
  16:00 22:00 39°F 0.14 in 29.97 inHg Light breeze from south-southeast 6 mph
  22:00 04:00 37°F 0.05 in 30.03 inHg Light breeze from southeast 4 mph
      Temperature Precip Pressure Wind  
Friday
11/30/2018
04:00 10:00 37°F   30.02 inHg Light air from south-southeast 2 mph
  10:00 16:00 41°F 0.09 in 30.07 inHg Light breeze from south-southwest 4 mph
How Close Are We To this Month's Temperature Record ?
Updated Wednesday, Nov 21, 2018- 6:25:01 AM

Current Temperature: 49.1°F

November's High: Temperature Record 72.9°F - Set on Thu, Nov 1, 2018 - 2:44:45 PM
We are currently 23.8°F Less than this Month's record High

November's Low: Temperature Record 28.9°F - Set on Thu, Nov 26, 2015 - 6:22:00 AM
We are currently 20.2°F More than this Month's record Low

Weather History For Wednesday, November 21, 2018


On this Day - In Weather History ...
Data courtesy of weatherforyou.com
powered by Cumulus v1.9.3 (1059)
Ambient Weather VWS v14.00
Top Contact Website Map Copyright © 2007 - 2018 Foresthillweather.com Never base important decisions on this or any weather information obtained from the Internet